Location: Central Springs Elementary School at Manly
(43.2859°N, 93.1959°W)
Time: 07:18:53
(UTC+00:00)

UNISAT 6 - Pass Details

Date: 08 December 2024
Orbit: 584 x 653 km, 97.7° (Epoch: 18 January)

Event Time Altitude Azimuth Distance (km) Brightness Sun altitude
Rises 23:50:30 0° 356° (N) 2,824 ? -12.9°
Reaches altitude 10° 23:53:13 10° 337° (NNW) 1,924 ? -13.4°
Maximum altitude 23:55:59 18° 295° (WNW) 1,496 ? -13.9°
Drops below altitude 10° 23:58:46 10° 253° (WSW) 1,932 ? -14.3°
Sets 00:01:31 0° 234° (SW) 2,841 ? -14.8°
